[[{"header":{"parameterUnit":"m.s-1","parameterCategory":1,"la1":30.2991,"la2":30.254,"lo1":-89.0895,"lo2":-89.0444,"dy":0.0017,"dx":0.0017,"nx":28,"ny":28,"refTime":"2023-10-03T21:00:00:Z","depth":0,"parameterNumber":2,"parameterNumberName":"U-component_of_WINDS"},"data":[0,0,0,0,0,0,0,0,0,0,0,0,0,0,0,0,0,0,0,0,0,0,0,0,0,0,0,0,0,0,0,0,0,0,0,0,0,0,0,0,0,0,0,0,0,0,0,0,0,0,0,0,0,0,0,0,0,0,-3.3619,-3.3618,0,-3.3582,-3.3581,-3.3581,-3.3448,-3.3445,-3.3442,-3.3439,-3.3404,-3.3406,-3.3407,0,0,0,0,0,0,0,0,0,0,0,0,0,-3.3577,-3.3579,-3.3619,-3.3618,-3.3618,-3.3582,-3.3581,-3.3581,-3.3448,-3.3445,-3.3441,-3.3438,-3.3403,-3.3405,-3.3408,0,0,0,0,0,0,0,0,0,0,0,0,0,-3.3574,-3.3579,-3.3619,-3.3547,-3.354,-3.3582,-3.3581,-3.3581,-3.3449,-3.3445,-3.344,-3.3436,-3.3402,-3.3405,-3.3408,-3.3516,0,0,-3.3417,-3.3418,0,0,0,0,0,0,0,0,-3.3574,-3.3575,-3.3558,-3.3552,-3.3545,-3.3515,-3.3554,-3.3559,-3.345,-3.3484,-3.3439,-3.3434,-3.3445,-3.3444,-3.3447,-3.3514,-3.3513,-3.3417,-3.3418,-3.342,-3.342,0,0,0,0,0,0,0,-3.3574,-3.3576,-3.3604,-3.3558,-3.355,-3.3518,-3.3512,-3.3554,-3.349,-3.3481,-3.3471,-3.3468,-3.344,-3.3444,-3.3445,-3.3512,-3.3417,-3.3419,-3.3421,-3.3422,-3.3667,-3.3672,0,0,0,0,0,0,-3.3584,-3.3577,-3.3605,-3.3603,-3.3548,-3.3523,-3.3516,-3.3529,-3.3489,-3.3479,-3.3472,-3.3462,-3.3442,-3.3442,-3.3443,-3.3566,-3.342,-3.3422,-3.3424,-3.3663,-3.3669,-3.3674,0,0,0,0,0,0,-3.3584,-3.3588,-3.3607,-3.3587,-3.3587,-3.3528,-3.3543,-3.3531,-3.3535,-3.3483,-3.3471,-3.3488,-3.3438,-3.3439,-3.3499,-3.3563,-3.3424,-3.3426,-3.3657,-3.3664,-3.3671,-3.3815,0,0,0,0,0,0,-3.3583,-3.3589,-3.3628,-3.3589,-3.3589,-3.3662,-3.3547,-3.3533,-3.354,-3.3526,-3.3495,-3.3485,-3.3435,-3.3495,-3.3502,-3.3565,-3.3428,-3.3651,-3.366,-3.3669,-3.3804,-3.3826,-3.3845,0,0,0,0,0,-3.3582,-3.3671,-3.3631,-3.3635,-3.3637,-3.3666,-3.3666,-3.3605,-3.3545,-3.3585,-3.3552,-3.3486,-3.3556,-3.3503,-3.3509,-3.3573,-3.3646,-3.3658,-3.3668,-3.3795,-3.3822,-3.3844,0,0,0,0,0,0,-3.3719,-3.3664,-3.3619,-3.3698,-3.3688,-3.3644,-3.3692,-3.3636,-3.3643,-3.363,-3.3556,-3.355,-3.362,-3.3603,-3.3545,-3.3676,-3.359,-3.3603,-3.3684,-3.371,-3.373,-3.3731,-3.3431,0,0,0,0,0,-3.3759,-3.3786,-3.3737,-3.3811,-3.3808,-3.3752,-3.3762,-3.3716,-3.3703,-3.3698,-3.3669,-3.366,-3.3679,-3.3694,-3.3709,-3.3802,-3.3793,-3.385,-3.387,-3.3887,-3.3898,-3.3946,-3.397,-3.3709,-3.3709,-3.3709,0,0,-3.384,-3.3813,-3.3835,-3.3838,-3.3824,-3.3855,-3.3749,-3.3786,-3.3808,-3.3704,-3.3758,-3.3737,-3.3722,-3.3798,-3.3831,-3.3786,-3.3969,-3.3901,-3.3915,-3.3917,-3.3959,-3.3984,-3.4006,-3.3717,-3.3715,-3.3714,0,0,-3.4003,-3.3987,-3.4045,-3.4035,-3.4016,-3.3978,-3.3993,-3.3958,-3.394,-3.3993,-3.3916,-3.3942,-3.3978,-3.397,-3.397,-3.4134,-3.4073,-3.4141,-3.4247,-3.4294,-3.4315,-3.4333,-3.439,-3.4411,-3.4153,-3.4153,-3.4154,0,-3.4106,-3.4149,-3.4083,-3.4125,-3.4129,-3.4037,-3.4097,-3.409,-3.4078,-3.4083,-3.4033,-3.4076,-3.406,-3.4133,-3.4173,-3.4177,-3.4191,-3.4143,-3.4317,-3.4334,-3.435,-3.4404,-3.4426,-3.4161,-3.4161,-3.416,-3.4159,0,-3.4277,-3.4308,-3.4358,-3.4348,-3.4358,-3.4409,-3.4352,-3.437,-3.4325,-3.4292,-3.4348,-3.4325,-3.4334,-3.4349,-3.4305,-3.4417,-3.4389,-3.433,-3.4242,-3.4384,-3.4433,-3.4454,-3.4173,-3.417,-3.4168,-3.4166,0,0,-3.4522,-3.4477,-3.4496,-3.449,-3.4464,-3.4487,-3.4536,-3.4543,-3.456,-3.4556,-3.4594,-3.4627,-3.4572,-3.4574,-3.4529,-3.4571,-3.47,-3.4506,-3.4504,-3.4541,-3.4821,-3.4865,-3.4889,-3.4661,-3.4665,-3.4668,-3.4822,0,-3.4676,-3.4753,-3.4697,-3.4784,-3.4812,-3.4726,-3.4768,-3.4757,-3.473,-3.475,-3.4719,-3.4744,-3.467,-3.467,-3.4708,-3.4677,-3.4755,-3.4665,-3.4696,-3.4698,-3.47,-3.4915,-3.4961,-3.5107,-3.4841,-3.4844,-3.4847,0,-3.4865,-3.4869,-3.4959,-3.4928,-3.4937,-3.4976,-3.4979,-3.5,-3.4987,-3.4963,-3.4966,-3.491,-3.4956,-3.4872,-3.4933,-3.4873,-3.4883,-3.4871,-3.4875,-3.4873,-3.4779,-3.4918,-3.5152,-3.5174,-3.4876,-3.4874,-3.4872,0,-3.5034,-3.5062,-3.5119,-3.5117,-3.5082,-3.5111,-3.5098,-3.508,-3.5089,-3.5093,-3.5098,-3.5109,-3.5114,-3.5123,-3.5072,-3.5015,-3.5141,-3.5052,-3.5123,-3.5124,-3.5151,-3.5149,-3.5388,-3.5161,-3.5161,-3.5161,-3.516,0,-3.521,-3.5268,-3.5194,-3.5229,-3.5292,-3.5228,-3.5293,-3.5271,-3.5256,-3.5286,-3.5214,-3.5244,-3.5176,-3.52,-3.5161,-3.5218,-3.5221,-3.5204,-3.5192,-3.5209,-3.5211,-3.5213,-3.5201,-3.5166,-3.5165,-3.5164,-3.5163,0,-3.5408,-3.536,-3.5417,-3.538,-3.5372,-3.542,-3.5389,-3.542,-3.5388,-3.5428,-3.5433,-3.5384,-3.5408,-3.5358,-3.5376,-3.535,-3.543,-3.5404,-3.5434,-3.5426,-3.5499,-3.5492,-3.5745,-3.5775,-3.5531,-3.5533,-3.5535,0,-3.5522,-3.5565,-3.5533,-3.5547,-3.5538,-3.5563,-3.5572,-3.5511,-3.5524,-3.5513,-3.5546,-3.5564,-3.5574,-3.5617,-3.5583,-3.5597,-3.5569,-3.5657,-3.557,-3.5586,-3.5569,-3.5566,-3.557,-3.5674,-3.5677,-3.568,-3.5682,0,-3.573,-3.5705,-3.572,-3.5728,-3.574,-3.5743,-3.5741,-3.5758,-3.5694,-3.5712,-3.5735,-3.5744,-3.5762,-3.5781,-3.5786,-3.5774,-3.5718,-3.571,-3.5726,-3.5743,-3.5758,-3.5749,-3.5481,-3.5703,-3.5701,-3.5699,-3.5698,-3.5697,-3.5888,-3.5922,-3.5905,-3.5924,-3.5917,-3.5917,-3.5945,-3.5917,-3.5935,-3.5944,-3.5908,-3.594,-3.5927,-3.5929,-3.5923,-3.5947,-3.5908,-3.5933,-3.5939,-3.5945,-3.5956,-3.5756,-3.5949,-3.5948,-3.5947,-3.5947,-3.5946,0,-3.6091,-3.6076,-3.6095,-3.6094,-3.611,-3.6056,-3.6052,-3.6069,-3.6097,-3.609,-3.6102,-3.613,-3.6148,-3.6117,-3.613,-3.6156,-3.6131,-3.6162,-3.6158,-3.6156,-3.5991,-3.5975,-3.6182,-3.6182,-3.6182,-3.6182,-3.6182,-3.6182,-3.6198,-3.6253,-3.6226,-3.6277,-3.6261,-3.6291,-3.6293,-3.6294,-3.6287,-3.6321,-3.6336,-3.6315,-3.6298,-3.631,-3.6325,-3.6315,-3.6323,-3.6363,-3.6344,-3.6191,-3.6168,-3.6145,-3.6129,-3.6366,-3.6366,-3.6506,-3.6508,-3.6509]},{"header":{"parameterUnit":"m.s-1","parameterCategory":1,"la1":30.2991,"la2":30.254,"lo1":-89.0895,"lo2":-89.0444,"dy":0.0017,"dx":0.0017,"nx":28,"ny":28,"refTime":"2023-10-03T21:00:00:Z","depth":0,"parameterNumber":3,"parameterNumberName":"V-component_of_WINDS"},"data":[0,0,0,0,0,0,0,0,0,0,0,0,0,0,0,0,0,0,0,0,0,0,0,0,0,0,0,0,0,0,0,0,0,0,0,0,0,0,0,0,0,0,0,0,0,0,0,0,0,0,0,0,0,0,0,0,0,0,2.3907,2.3907,0,2.3942,2.3943,2.3943,2.3992,2.3993,2.3994,2.3995,2.4027,2.4027,2.4027,0,0,0,0,0,0,0,0,0,0,0,0,0,2.3878,2.3878,2.3907,2.3907,2.3908,2.3942,2.3943,2.3943,2.3992,2.3993,2.3994,2.3995,2.4027,2.4027,2.4027,0,0,0,0,0,0,0,0,0,0,0,0,0,2.39,2.3878,2.3907,2.3936,2.3939,2.3942,2.3943,2.3943,2.3992,2.3993,2.3994,2.3995,2.4027,2.4027,2.4028,2.4003,0,0,2.4028,2.4028,0,0,0,0,0,0,0,0,2.3898,2.3901,2.3931,2.3934,2.3938,2.3964,2.3945,2.3963,2.3991,2.3972,2.3995,2.3996,2.4005,2.4007,2.4011,2.4005,2.4006,2.4028,2.4028,2.4028,2.4028,0,0,0,0,0,0,0,2.3897,2.3899,2.3921,2.3932,2.3936,2.3947,2.3951,2.3949,2.3981,2.3973,2.3977,2.3981,2.4007,2.4011,2.4012,2.4007,2.4028,2.4028,2.4028,2.4028,2.3983,2.3981,0,0,0,0,0,0,2.3891,2.3898,2.392,2.3922,2.3921,2.3946,2.3951,2.3954,2.3981,2.3986,2.398,2.3983,2.401,2.4012,2.4013,2.3986,2.4028,2.4028,2.4028,2.3984,2.3982,2.3981,0,0,0,0,0,0,2.3891,2.3893,2.3918,2.3911,2.3915,2.3945,2.3948,2.3954,2.3958,2.3986,2.3991,2.3978,2.4011,2.4013,2.4006,2.3988,2.4028,2.4028,2.3986,2.3984,2.3982,2.3932,0,0,0,0,0,0,2.389,2.3892,2.3884,2.391,2.3915,2.391,2.3947,2.3954,2.3959,2.3963,2.3985,2.399,2.4012,2.4005,2.4006,2.3989,2.4029,2.3987,2.3985,2.3982,2.3936,2.3929,2.3923,0,0,0,0,0,2.3888,2.3868,2.3883,2.3886,2.3906,2.3909,2.3912,2.3939,2.3957,2.3948,2.3966,2.399,2.3991,2.4004,2.4005,2.3988,2.3988,2.3985,2.3983,2.3939,2.393,2.3924,0,0,0,0,0,0,2.3837,2.3872,2.3889,2.3877,2.389,2.3918,2.3908,2.3929,2.3936,2.394,2.3972,2.3976,2.3965,2.3976,2.3991,2.3966,2.3993,2.399,2.3959,2.3952,2.3946,2.3942,2.4029,0,0,0,0,0,2.3824,2.3825,2.3856,2.3842,2.3848,2.3876,2.3879,2.3899,2.3913,2.3918,2.3936,2.3948,2.3951,2.3952,2.3957,2.3938,2.3943,2.3927,2.3921,2.3916,2.3912,2.3903,2.3896,2.3971,2.3972,2.3972,0,0,2.3797,2.3817,2.3815,2.3832,2.3844,2.3844,2.3881,2.3879,2.3878,2.3918,2.3912,2.3925,2.3941,2.3928,2.3923,2.3937,2.3893,2.3912,2.3908,2.3907,2.39,2.3892,2.3886,2.397,2.397,2.397,0,0,2.3749,2.3764,2.3754,2.3766,2.3786,2.3805,2.3803,2.3828,2.3838,2.3834,2.3863,2.3863,2.3868,2.3878,2.3884,2.384,2.3861,2.3841,2.3808,2.3798,2.3792,2.3787,2.3771,2.3765,2.3838,2.3838,2.3838,0,2.3712,2.3714,2.3746,2.3742,2.3748,2.3786,2.3776,2.3786,2.3805,2.3808,2.3824,2.3831,2.3844,2.3834,2.3823,2.3827,2.3824,2.3837,2.3791,2.3786,2.3782,2.3766,2.376,2.3835,2.3835,2.3836,2.3836,0,2.3669,2.367,2.3659,2.3678,2.3684,2.3677,2.3706,2.3707,2.3727,2.3745,2.3739,2.3757,2.3765,2.3765,2.3783,2.3757,2.3765,2.3786,2.3812,2.3771,2.3757,2.3752,2.3831,2.3832,2.3833,2.3834,0,0,2.3586,2.3624,2.362,2.3629,2.3654,2.3655,2.3649,2.366,2.366,2.3672,2.3667,2.3672,2.3691,2.3697,2.3718,2.371,2.3673,2.3731,2.3732,2.3719,2.3645,2.3628,2.362,2.3688,2.3688,2.3687,2.3643,0,2.3541,2.3535,2.3564,2.355,2.3551,2.3588,2.3583,2.3597,2.3614,2.3617,2.3635,2.3637,2.3663,2.3667,2.3661,2.3679,2.3658,2.3683,2.3683,2.3683,2.3676,2.3613,2.3596,2.3553,2.3638,2.3637,2.3636,0,2.3487,2.3498,2.3485,2.3511,2.3513,2.3508,2.352,2.3522,2.3539,2.3552,2.356,2.3584,2.3579,2.3607,2.3601,2.3617,2.3619,2.3628,2.3627,2.3626,2.3656,2.361,2.354,2.3533,2.3628,2.3629,2.3629,0,2.3427,2.3438,2.3432,2.3439,2.347,2.3466,2.3478,2.3496,2.3501,2.3511,2.3514,2.3523,2.3527,2.3533,2.3558,2.3576,2.3549,2.3579,2.3558,2.3557,2.3549,2.3549,2.3478,2.3553,2.3553,2.3553,2.3553,0,2.3372,2.3362,2.3406,2.3401,2.3391,2.3425,2.3413,2.3429,2.3445,2.3444,2.3477,2.3474,2.3509,2.351,2.353,2.3522,2.3524,2.3533,2.3538,2.3529,2.3528,2.353,2.3533,2.3552,2.3552,2.3552,2.3553,0,2.3303,2.3331,2.3327,2.3357,2.3364,2.3355,2.3381,2.3378,2.3398,2.3396,2.3397,2.3427,2.3431,2.3457,2.3466,2.348,2.3463,2.3475,2.3458,2.3461,2.3438,2.344,2.3364,2.3356,2.3438,2.3437,2.3436,0,2.3265,2.3259,2.3289,2.3291,2.3303,2.3306,2.3311,2.3344,2.3348,2.3367,2.3361,2.3368,2.3375,2.3378,2.34,2.3407,2.3418,2.3392,2.3419,2.3411,2.3416,2.3416,2.3415,2.3385,2.3384,2.3383,2.3382,0,2.3196,2.3211,2.3218,2.323,2.3235,2.3246,2.3258,2.3258,2.3294,2.3297,2.3302,2.3307,2.3318,2.3323,2.3334,2.3346,2.3369,2.3374,2.3369,2.3359,2.3349,2.3353,2.344,2.3375,2.3376,2.3376,2.3376,2.3377,2.314,2.3136,2.3157,2.3164,2.3177,2.3189,2.3187,2.3208,2.3213,2.3225,2.3244,2.3245,2.3263,2.328,2.329,2.3291,2.3305,2.3299,2.3297,2.3295,2.3289,2.335,2.3294,2.3294,2.3294,2.3294,2.3295,0,2.3071,2.3087,2.3093,2.3111,2.3116,2.314,2.3156,2.3158,2.316,2.3174,2.3181,2.3187,2.3193,2.3216,2.3224,2.322,2.3231,2.3221,2.3221,2.3223,2.3277,2.328,2.3212,2.3212,2.3212,2.3212,2.3212,2.3212,2.3036,2.303,2.3048,2.3049,2.3065,2.3069,2.3075,2.3085,2.3098,2.3103,2.3108,2.3124,2.3142,2.3152,2.3158,2.3165,2.3165,2.3151,2.3161,2.3211,2.3219,2.3226,2.3229,2.3152,2.3151,2.3106,2.3106,2.3106]}]]